Cut Bank, MT

8:43 AM MST on January 19, 2017 (GMT -0700)
Cut Bank Municipal

Weather History for KCTB - July, 2013

Change the Weather History Date:

Wednesday, July 17, 2013

  Actual Average Record
Temperature  
Mean Temperature 68 °F 65 °F  
Max Temperature 87 °F 80 °F 100 °F (1936)
Min Temperature 49 °F 50 °F 34 °F (1999)
Degree Days  
Heating Degree Days 0 2  
Month to date heating degree days 26 60  
Since 1 June heating degree days 235 293  
Since 1 July heating degree days 26 60  
Cooling Degree Days 3 3  
Month to date cooling degree days 50 30  
Year to date cooling degree days 64 47  
Since 1 June cooling degree days 62 45  
Growing Degree Days 17 (Base 50)    
Moisture  
Dew Point 53 °F    
Average Humidity 61    
Maximum Humidity 90    
Minimum Humidity 32    
Precipitation  
Precipitation 0.06 in 0.04 in 0.85 in (1923)
Month to date precipitation 1.48 0.80  
Year to date precipitation 9.27 6.99  
Snow  
Snow 0.00 in - - ()
Snow Depth 0.00 in    
Sea Level Pressure  
Sea Level Pressure 30.05 in    
Wind  
Wind Speed 7 mph (ESE)    
Max Wind Speed 30 mph    
Max Gust Speed 36 mph    
Visibility 10 miles    
Events Rain    
T = Trace of Precipitation, MM = Missing Value Source: NWS Daily Summary

Daily Weather History Graph

Daily Weather History Graph

Search for Another Location

Airport or City:

Trip Planner

Search our weather history database for the weather conditions in past years. The results will help you decide how hot, cold, wet, or windy it might be!

Date:

Astronomy

Jul. 17, 2013 Rise Set
Actual Time 5:45 AM MDT 9:25 PM MDT
Civil Twilight 5:05 AM MDT 10:04 PM MDT
Nautical Twilight 4:12 AM MDT 10:57 PM MDT
Astronomical Twilight 2:55 AM MDT 12:13 AM MDT
Moon 4:12 PM MDT (7/17) 1:05 AM MDT (7/17)
Length of Visible Light 16h 58m
Length of Day
15h 39m
Waxing Gibbous, 68% of the Moon is Illuminated
Jul 17
Waxing Gibbous
Jul 22
Full
Jul 29
Last Quarter
Aug 6
New
Aug 14
First Quarter

Hourly Weather History & Observations

Time (MDT) Temp. Heat Index Dew Point Humidity Pressure Visibility Wind Dir Wind Speed Gust Speed Precip Events Conditions
12:56 AM 60.1 °F - 46.0 °F 60% 30.15 in 10.0 mi ENE 5.8 mph - N/A   Clear
1:56 AM 59.0 °F - 46.9 °F 64% 30.15 in 10.0 mi East 5.8 mph - N/A   Clear
2:56 AM 57.0 °F - 46.0 °F 67% 30.16 in 10.0 mi East 4.6 mph - N/A   Clear
3:56 AM 55.9 °F - 46.0 °F 69% 30.15 in 10.0 mi ENE 3.5 mph - N/A   Clear
4:56 AM 51.1 °F - 46.0 °F 83% 30.16 in 10.0 mi Calm Calm - N/A   Clear
5:56 AM 50.0 °F - 46.0 °F 86% 30.16 in 10.0 mi West 4.6 mph - N/A   Mostly Cloudy
6:56 AM 54.0 °F - 46.9 °F 77% 30.14 in 10.0 mi Calm Calm - N/A   Partly Cloudy
7:56 AM 53.1 °F - 48.0 °F 83% 30.14 in 10.0 mi Calm Calm - N/A   Mostly Cloudy
8:56 AM 61.0 °F - 48.9 °F 64% 30.13 in 10.0 mi ESE 4.6 mph - N/A   Clear
9:56 AM 64.0 °F - 51.1 °F 63% 30.13 in 10.0 mi SSE 6.9 mph - N/A   Clear
10:56 AM 69.1 °F - 52.0 °F 54% 30.08 in 10.0 mi SE 10.4 mph 17.3 mph N/A   Clear
11:56 AM 73.9 °F - 54.0 °F 50% 30.03 in 10.0 mi SE 15.0 mph 21.9 mph N/A   Clear
12:56 PM 77.0 °F - 54.0 °F 45% 30.01 in 10.0 mi SE 16.1 mph 21.9 mph N/A   Clear
1:56 PM 81.0 °F 80.4 °F 53.1 °F 38% 30.00 in 10.0 mi SSE 13.8 mph 20.7 mph N/A   Clear
2:56 PM 82.9 °F - 52.0 °F 34% 29.97 in 10.0 mi SE 11.5 mph 19.6 mph N/A   Clear
3:56 PM 84.0 °F - 52.0 °F 33% 29.93 in 10.0 mi ESE 8.1 mph 23.0 mph N/A   Clear
4:56 PM 84.0 °F - 52.0 °F 33% 29.92 in 10.0 mi ESE 9.2 mph 17.3 mph N/A   Clear
5:56 PM 75.0 °F - 62.1 °F 64% 29.95 in 10.0 mi ESE 6.9 mph - 0.04 in   Clear
6:22 PM 68.0 °F - 60.8 °F 78% 30.03 in 5.0 mi West 16.1 mph 35.7 mph 0.02 in Rain Light Rain
6:56 PM 72.0 °F - 63.0 °F 73% 29.93 in 10.0 mi SSE 5.8 mph - 0.02 in   Clear
7:56 PM 75.9 °F - 63.0 °F 64% 29.94 in 10.0 mi SE 8.1 mph - N/A   Clear
8:56 PM 71.1 °F - 62.1 °F 73% 29.96 in 10.0 mi North 9.2 mph - N/A   Clear
9:56 PM 66.9 °F - 60.1 °F 79% 29.99 in 10.0 mi North 11.5 mph - N/A   Scattered Clouds
10:56 PM 63.0 °F - 59.0 °F 87% 30.01 in 10.0 mi NW 5.8 mph - N/A   Clear
11:56 PM 61.0 °F - 57.0 °F 87% 30.01 in 10.0 mi WNW 10.4 mph - N/A   Clear